K3FAZ Weather Reports


time (UTC)temp
C
wind
direction
speed
KPH
gust
KPH
rain 1hr
cm
rain 24hr
cm
rain mn
cm
humidity
%
barometer
mb
20260509222626 18 197 16.1 17.7 0.00 0.33 0.33 56 1009.4
20260509222122 18 202 11.3 12.9 0.00 0.33 0.33 59 1009.4
20260509221618 18 198 11.3 14.5 0.00 0.33 0.33 56 1009.3
20260509221114 18 188 17.7 22.5 0.00 0.33 0.33 57 1009.3
20260509220610 18 184 16.1 16.1 0.00 0.33 0.33 58 1009.5
20260509220107 18 179 14.5 16.1 0.00 0.33 0.33 60 1009.5
20260509215602 18 195 19.3 22.5 0.00 0.33 0.33 60 1009.7
20260509215059 18 180 24.1 29.0 0.00 0.33 0.33 59 1009.5
20260509214556 18 229 6.4 6.4 0.00 0.33 0.33 59 1009.6
20260509214053 18 195 4.8 6.4 0.00 0.33 0.33 62 1009.7
20260509213549 18 187 16.1 17.7 0.00 0.33 0.33 62 1009.6
20260509213046 18 189 17.7 20.9 0.00 0.33 0.33 62 1009.7
20260509212543 18 177 22.5 29.0 0.00 0.33 0.33 57 1009.9
20260509212040 18 161 4.8 4.8 0.00 0.33 0.33 60 1009.8
20260509211536 18 177 11.3 14.5 0.00 0.33 0.33 61 1010.0
20260509211033 18 182 11.3 12.9 0.00 0.33 0.33 59 1009.8
20260509210530 18 194 11.3 12.9 0.00 0.33 0.33 60 1009.9
20260509210026 18 187 6.4 9.7 0.00 0.33 0.33 60 1010.0
20260509205520 18 193 9.7 11.3 0.00 0.33 0.33 61 1010.0
20260509205016 18 72 3.2 4.8 0.00 0.33 0.33 59 1010.1
20260509204512 18 178 9.7 11.3 0.00 0.33 0.33 61 1010.0
20260509204009 18 171 12.9 16.1 0.00 0.33 0.33 65 1009.9
20260509203504 17 197 9.7 11.3 0.00 0.33 0.33 63 1010.2
20260509203003 17 188 9.7 12.9 0.00 0.33 0.33 65 1010.2
20260509202458 17 192 9.7 11.3 0.00 0.33 0.33 64 1010.0
20260509201959 17 217 6.4 9.7 0.00 0.33 0.33 66 1010.4
20260509201454 17 175 6.4 9.7 0.00 0.33 0.33 68 1010.4
20260509200951 17 210 8.0 11.3 0.00 0.33 0.33 66 1010.7
20260509200446 17 178 12.9 12.9 0.00 0.33 0.33 67 1010.5
20260509195943 17 178 12.9 14.5 0.00 0.33 0.33 67 1010.4
20260509195439 17 192 14.5 17.7 0.00 0.33 0.33 67 1010.5
20260509194938 17 183 14.5 16.1 0.00 0.33 0.33 68 1010.6
20260509194434 16 244 8.0 12.9 0.00 0.33 0.33 69 1010.6
20260509193931 17 220 9.7 12.9 0.00 0.33 0.33 66 1010.8
20260509193430 17 199 9.7 11.3 0.00 0.33 0.33 68 1010.7
20260509192927 17 201 14.5 17.7 0.00 0.33 0.33 66 1010.8
20260509192424 16 177 11.3 12.9 0.00 0.33 0.33 71 1010.8
20260509191919 17 198 8.0 9.7 0.00 0.33 0.33 70 1010.8
20260509191414 17 191 11.3 14.5 0.00 0.33 0.33 70 1010.8
20260509190911 16 188 4.8 4.8 0.00 0.33 0.33 72 1010.8
20260509190408 16 204 11.3 14.5 0.00 0.33 0.33 72 1011.2
20260509185906 16 187 8.0 9.7 0.00 0.33 0.33 72 1010.9
20260509185402 17 196 9.7 11.3 0.00 0.33 0.33 71 1011.1
20260509184859 17 185 8.0 11.3 0.00 0.33 0.33 73 1011.2
20260509184356 16 203 8.0 11.3 0.00 0.33 0.33 76 1011.1
20260509183854 15 201 16.1 17.7 0.00 0.33 0.33 75 1011.0
20260509183348 16 167 17.7 20.9 0.00 0.33 0.33 77 1011.4
20260509182844 16 222 9.7 12.9 0.00 0.33 0.33 74 1011.4
20260509182341 16 196 8.0 11.3 0.00 0.33 0.33 75 1011.3
20260509181838 16 168 17.7 22.5 0.00 0.33 0.33 76 1011.2
20260509181336 16 189 6.4 6.4 0.00 0.33 0.33 79 1011.3
20260509180833 15 182 3.2 4.8 0.00 0.33 0.33 81 1011.4
20260509180329 15 182 8.0 9.7 0.00 0.33 0.33 81 1011.3
20260509175826 15 179 12.9 14.5 0.00 0.33 0.33 81 1011.3
20260509175322 15 196 9.7 12.9 0.00 0.33 0.33 82 1011.1
20260509174818 14 197 4.8 4.8 0.00 0.33 0.33 84 1011.5
20260509174313 13 227 3.2 3.2 0.00 0.33 0.33 85 1011.5
20260509173810 14 176 8.0 11.3 0.00 0.33 0.33 83 1011.2
20260509173305 14 221 6.4 6.4 0.00 0.33 0.33 81 1011.4
20260509172801 14 182 6.4 6.4 0.00 0.33 0.33 83 1011.2
20260509172259 15 189 4.8 6.4 0.00 0.33 0.33 82 1011.3
20260509171754 15 188 4.8 4.8 0.00 0.33 0.33 82 1011.1
20260509171250 14 211 8.0 9.7 0.00 0.33 0.33 84 1011.2
20260509170747 14 190 3.2 3.2 0.00 0.33 0.33 85 1011.3
20260509170243 14 183 11.3 12.9 0.00 0.33 0.33 84 1011.3
20260509165742 14 193 11.3 14.5 0.00 0.33 0.33 84 1011.2
20260509165237 14 180 9.7 12.9 0.00 0.33 0.33 87 1011.1
20260509164733 14 188 6.4 6.4 0.00 0.33 0.33 88 1011.2
20260509164229 13 196 6.4 6.4 0.00 0.33 0.33 89 1011.3
20260509163726 13 161 6.4 6.4 0.00 0.33 0.33 91 1011.2
20260509163223 13 169 12.9 14.5 0.00 0.33 0.33 91 1011.2
20260509162721 13 194 9.7 11.3 0.00 0.33 0.33 92 1011.2
20260509162216 12 207 6.4 6.4 0.00 0.33 0.33 94 1011.4
20260509161712 12 204 9.7 12.9 0.00 0.33 0.33 94 1011.4
20260509161208 12 178 14.5 16.1 0.00 0.33 0.33 94 1011.3
20260509160703 12 175 9.7 11.3 0.00 0.33 0.33 96 1011.3
20260509160200 12 187 8.0 9.7 0.00 0.33 0.33 97 1011.3
20260509155655 12 197 4.8 4.8 0.00 0.33 0.33 97 1011.4
20260509155152 12 195 6.4 9.7 0.00 0.33 0.33 97 1011.5
20260509154647 11 186 8.0 9.7 0.00 0.33 0.33 97 1011.4
20260509154145 11 177 4.8 4.8 0.00 0.33 0.33 97 1011.4
20260509153642 11 191 4.8 4.8 0.18 0.33 0.33 97 1011.4
20260509153138 11 189 6.4 6.4 0.18 0.33 0.33 97 1011.3
20260509152634 11 179 8.0 9.7 0.00 0.30 0.30 97 1011.4
20260509152132 11 201 6.4 6.4 0.13 0.30 0.30 97 1011.1
20260509151628 11 178 9.7 11.3 0.13 0.30 0.30 97 1011.3
20260509151126 11 186 6.4 6.4 0.18 0.28 0.28 97 1011.3
20260509150623 11 186 6.4 9.7 0.30 0.28 0.28 97 1011.4
20260509150121 11 194 9.7 11.3 0.13 0.25 0.25 97 1011.4
20260509145617 11 185 4.8 4.8 0.00 0.23 0.23 97 1011.3
20260509145112 11 195 6.4 6.4 0.00 0.23 0.23 97 1011.4
20260509144610 11 181 9.7 11.3 0.00 0.23 0.23 97 1011.2
20260509144107 11 212 4.8 4.8 0.00 0.23 0.23 97 1011.3
20260509143604 11 180 12.9 17.7 0.00 0.23 0.23 97 1011.3
20260509143101 11 182 11.3 14.5 0.18 0.23 0.23 97 1011.3
20260509142556 11 217 6.4 9.7 0.18 0.23 0.23 97 1011.4
20260509142053 11 169 9.7 11.3 0.00 0.20 0.20 97 1011.4
20260509141549 11 177 9.7 11.3 0.00 0.20 0.20 98 1011.3
20260509141046 10 183 14.5 14.5 0.00 0.20 0.20 98 1011.4
20260509140543 10 164 9.7 11.3 0.00 0.20 0.20 98 1011.5
20260509140041 10 191 9.7 11.3 0.00 0.20 0.20 98 1011.3
20260509135537 10 200 6.4 6.4 0.00 0.20 0.20 98 1011.5
20260509135035 10 194 6.4 6.4 0.00 0.20 0.20 98 1011.7
20260509134532 10 198 6.4 6.4 0.00 0.20 0.20 98 1011.6
20260509134030 10 255 6.4 9.7 0.00 0.20 0.20 98 1011.4
20260509133526 10 188 6.4 6.4 0.18 0.20 0.20 98 1011.4
20260509133024 10 187 8.0 9.7 0.18 0.20 0.20 98 1011.5
20260509132522 10 183 8.0 9.7 0.13 0.18 0.18 98 1011.6
20260509132020 10 186 8.0 9.7 0.13 0.18 0.18 98 1011.6
20260509131516 10 188 9.7 12.9 0.30 0.18 0.18 97 1011.6
20260509131013 10 170 11.3 11.3 0.30 0.15 0.15 97 1011.5
20260509130508 10 175 9.7 11.3 0.13 0.13 0.13 97 1011.7
20260509130006 10 200 4.8 4.8 0.00 0.10 0.10 97 1011.7
20260509125502 10 211 4.8 4.8 0.00 0.10 0.10 97 1011.5
20260509124958 10 173 8.0 9.7 0.18 0.10 0.10 97 1011.7
20260509124455 10 202 8.0 9.7 0.18 0.10 0.10 97 1011.5
20260509123952 10 168 8.0 9.7 0.00 0.08 0.08 97 1011.7
20260509123450 10 187 9.7 12.9 0.00 0.08 0.08 98 1011.6
20260509122945 10 203 6.4 6.4 0.00 0.08 0.08 98 1011.7
20260509122443 10 194 11.3 12.9 0.00 0.08 0.08 98 1011.7
20260509121939 10 161 8.0 9.7 0.00 0.08 0.08 98 1011.8
20260509121436 10 186 9.7 11.3 0.00 0.08 0.08 98 1011.7
20260509120934 10 162 9.7 11.3 0.00 0.08 0.08 99 1011.8
20260509120432 10 187 3.2 3.2 0.13 0.08 0.08 99 1011.8
20260509115930 10 198 4.8 4.8 0.13 0.08 0.08 99 1012.1
20260509115427 10 150 3.2 3.2 0.00 0.05 0.05 99 1011.8
20260509114924 9 180 3.2 3.2 0.18 0.05 0.05 99 1012.0
20260509114423 9 181 3.2 3.2 0.18 0.05 0.05 99 1011.7
20260509113922 9 199 1.6 3.2 0.00 0.03 0.03 99 1011.8
20260509113419 9 182 3.2 3.2 0.00 0.03 0.03 99 1011.7
20260509112915 9 171 0.0 0.0 0.00 0.03 0.03 99 1011.7
20260509112413 9 312 0.0 0.0 0.00 0.03 0.03 99 1011.7
20260509111910 8 323 0.0 0.0 0.00 0.03 0.03 99 1011.7
20260509111406 8 307 0.0 0.0 0.00 0.03 0.03 99 1011.7
20260509110904 8 327 0.0 0.0 0.00 0.03 0.03 99 1011.6
20260509110400 8 328 0.0 0.0 0.00 0.03 0.03 99 1011.7
20260509105858 8 341 0.0 0.0 0.00 0.03 0.03 99 1011.4
20260509105356 8 339 0.0 0.0 0.00 0.03 0.03 99 1011.6
20260509104853 8 337 0.0 0.0 0.00 0.03 0.03 99 1011.8
20260509104349 8 334 0.0 0.0 0.00 0.03 0.03 99 1011.5
20260509103847 8 310 0.0 0.0 0.00 0.03 0.03 99 1011.5
20260509103344 8 333 0.0 0.0 0.00 0.03 0.03 99 1011.4
20260509102843 8 330 0.0 0.0 0.00 0.03 0.03 99 1011.6
20260509102340 8 326 0.0 0.0 0.00 0.03 0.03 99 1011.5
20260509101835 8 334 0.0 0.0 0.00 0.03 0.03 99 1011.5
20260509101332 8 342 0.0 0.0 0.00 0.03 0.03 99 1011.5
20260509100830 8 351 0.0 0.0 0.13 0.03 0.03 99 1011.8
20260509100327 8 351 0.0 0.0 0.13 0.03 0.03 99 1011.7
20260509095823 8 333 0.0 0.0 0.00 0.00 0.00 99 1011.5
20260509095321 8 339 0.0 0.0 0.00 0.00 0.00 99 1011.7
20260509094818 8 353 0.0 0.0 0.00 0.00 0.00 99 1011.6
20260509094314 8 348 0.0 0.0 0.00 0.00 0.00 99 1012.0
20260509093812 8 357 0.0 0.0 0.00 0.00 0.00 99 1012.0
20260509093309 8 357 0.0 0.0 0.00 0.00 0.00 99 1012.1
20260509092808 8 357 0.0 0.0 0.00 0.00 0.00 99 1012.1
20260509092306 8 1 0.0 0.0 0.00 0.00 0.00 99 1012.0
20260509091803 8 357 0.0 0.0 0.00 0.00 0.00 99 1011.8
20260509091259 8 356 0.0 0.0 0.00 0.00 0.00 99 1012.2
20260509090757 8 356 0.0 0.0 0.00 0.00 0.00 99 1012.2
20260509090254 8 356 0.0 0.0 0.00 0.00 0.00 99 1012.2
20260509085751 8 356 0.0 0.0 0.00 0.00 0.00 99 1012.1
20260509085248 8 356 0.0 0.0 0.00 0.00 0.00 99 1012.3
20260509084745 8 356 0.0 0.0 0.00 0.00 0.00 99 1012.2
20260509084242 8 356 0.0 0.0 0.00 0.00 0.00 99 1012.1
20260509083740 8 356 0.0 0.0 0.00 0.00 0.00 99 1012.3
20260509083236 8 358 0.0 0.0 0.00 0.00 0.00 99 1012.1
20260509082733 8 0 0.0 0.0 0.00 0.00 0.00 99 1012.2
20260509082229 8 6 0.0 0.0 0.00 0.00 0.00 99 1012.0
20260509081726 8 6 0.0 0.0 0.00 0.00 0.00 99 1012.1
20260509081224 8 5 0.0 0.0 0.00 0.00 0.00 99 1012.1
20260509080722 8 13 0.0 0.0 0.00 0.00 0.00 99 1012.1
20260509080219 8 13 0.0 0.0 0.00 0.00 0.00 99 1012.1
20260509075717 8 16 0.0 0.0 0.00 0.00 0.00 99 1012.1
20260509075215 8 352 0.0 0.0 0.00 0.00 0.00 99 1012.3
20260509074711 8 1 0.0 0.0 0.00 0.00 0.00 99 1012.0
20260509074209 8 9 0.0 0.0 0.00 0.00 0.00 99 1011.8
20260509073705 8 10 0.0 0.0 0.00 0.00 0.00 99 1012.1
20260509073201 8 353 0.0 0.0 0.00 0.00 0.00 99 1012.3
20260509072658 8 24 0.0 0.0 0.00 0.00 0.00 99 1012.3
20260509072155 8 3 0.0 0.0 0.00 0.00 0.00 99 1012.3
20260509071651 8 1 0.0 0.0 0.00 0.00 0.00 99 1012.1
20260509071149 8 1 0.0 0.0 0.00 0.00 0.00 99 1012.3
20260509070646 8 356 0.0 0.0 0.00 0.00 0.00 99 1012.3
20260509070142 8 346 0.0 0.0 0.00 0.00 0.00 98 1012.3
20260509065638 8 337 0.0 0.0 0.00 0.00 0.00 98 1012.3
20260509065134 8 6 0.0 0.0 0.00 0.00 0.00 98 1012.1
20260509064631 8 356 0.0 0.0 0.00 0.00 0.00 98 1012.2
20260509064129 8 359 0.0 0.0 0.00 0.00 0.00 98 1012.5
20260509063626 8 349 0.0 0.0 0.00 0.00 0.00 98 1012.6
20260509063122 8 358 0.0 0.0 0.00 0.00 0.00 98 1012.6
20260509062620 8 10 0.0 0.0 0.00 0.00 0.00 98 1012.7
20260509062117 8 350 0.0 0.0 0.00 0.00 0.00 98 1012.9
20260509061614 8 17 0.0 0.0 0.00 0.00 0.00 98 1012.8
20260509061111 8 353 0.0 0.0 0.00 0.00 0.00 98 1013.0
20260509060609 8 14 0.0 0.0 0.00 0.00 0.00 98 1013.0
20260509060104 8 9 0.0 0.0 0.00 0.00 0.00 98 1013.0
20260509055600 8 6 0.0 0.0 0.00 0.00 0.00 98 1013.0
20260509055056 8 23 0.0 0.0 0.00 0.00 0.00 98 1012.9
20260509054553 8 352 0.0 0.0 0.00 0.00 0.00 98 1013.1
20260509054051 8 3 0.0 0.0 0.00 0.00 0.00 98 1013.1
20260509053549 8 353 0.0 0.0 0.00 0.00 0.00 98 1013.2
20260509053046 8 355 0.0 0.0 0.00 0.00 0.00 98 1013.3
20260509052543 8 357 0.0 0.0 0.00 0.00 0.00 98 1013.4
20260509052041 8 6 0.0 0.0 0.00 0.00 0.00 98 1013.5
20260509051539 8 349 0.0 0.0 0.00 0.00 0.00 98 1013.4
20260509051036 8 353 0.0 0.0 0.00 0.00 0.00 98 1013.3
20260509050533 8 10 0.0 0.0 0.00 0.00 0.00 98 1013.6
20260509050029 8 17 0.0 0.0 0.00 0.00 0.00 98 1013.4
20260509045526 8 0 0.0 0.0 0.00 0.00 0.00 98 1013.5
20260509045023 8 3 0.0 0.0 0.00 0.00 0.00 98 1013.7
20260509044521 8 10 0.0 0.0 0.00 0.00 0.00 98 1013.7
20260509044018 8 12 0.0 0.0 0.00 0.00 0.00 98 1013.9
20260509043515 8 357 0.0 0.0 0.00 0.00 0.00 98 1013.7
20260509043010 9 0 0.0 0.0 0.00 0.00 0.00 98 1014.0
20260509042506 9 341 0.0 0.0 0.00 0.00 0.00 98 1014.1
20260509042003 9 5 0.0 0.0 0.00 0.00 0.00 98 1014.1
20260509041459 9 353 0.0 0.0 0.00 0.00 0.00 98 1014.2
20260509040957 9 356 0.0 0.0 0.00 0.00 0.00 98 1014.2
20260509040456 9 356 0.0 0.0 0.00 0.00 0.00 98 1014.2
20260509035951 9 356 0.0 0.0 0.00 0.28 0.28 98 1014.3
20260509035448 9 16 0.0 0.0 0.00 0.28 0.28 98 1014.3
20260509034945 9 8 0.0 0.0 0.00 0.28 0.28 98 1014.5
20260509034443 9 20 0.0 0.0 0.18 0.28 0.28 98 1014.6
20260509033940 9 16 0.0 0.0 0.18 0.28 0.28 98 1014.5
20260509033437 9 5 0.0 0.0 0.00 0.25 0.25 98 1014.7
20260509032933 9 5 0.0 0.0 0.00 0.25 0.25 98 1014.9
20260509032431 9 4 0.0 0.0 0.00 0.25 0.25 98 1015.0
20260509031929 9 4 0.0 0.0 0.00 0.25 0.25 98 1015.0
20260509031426 9 4 0.0 0.0 0.00 0.25 0.25 98 1014.9
20260509030923 9 14 0.0 0.0 0.00 0.25 0.25 98 1015.0
20260509030421 9 0 0.0 0.0 0.13 0.25 0.25 98 1015.2
20260509025918 9 0 0.0 0.0 0.13 0.25 0.25 98 1015.4
20260509025414 9 1 0.0 0.0 0.18 0.23 0.23 98 1015.3
20260509024909 9 345 0.0 0.0 0.18 0.23 0.23 98 1015.4
20260509024405 9 342 0.0 0.0 0.00 0.20 0.20 98 1015.5
20260509023902 9 350 0.0 0.0 0.18 0.20 0.20 98 1015.4
20260509023400 9 8 0.0 0.0 0.18 0.20 0.20 98 1015.3
20260509022856 9 34 0.0 0.0 0.00 0.18 0.18 98 1015.2
20260509022353 9 296 3.2 3.2 0.00 0.18 0.18 97 1015.2
20260509021850 9 19 0.0 0.0 0.13 0.18 0.18 97 1015.0
20260509021347 9 312 0.0 0.0 0.13 0.18 0.18 97 1015.0
20260509020845 9 350 0.0 0.0 0.00 0.15 0.15 97 1014.9
20260509020343 9 353 0.0 0.0 0.00 0.15 0.15 97 1014.9
20260509015840 9 10 0.0 0.0 0.00 0.15 0.15 97 1014.7
20260509015338 9 7 0.0 0.0 0.00 0.15 0.15 97 1014.4
20260509014835 9 9 0.0 0.0 0.00 0.15 0.15 97 1014.5
20260509014331 9 0 0.0 0.0 0.00 0.15 0.15 97 1014.6
20260509013828 9 17 0.0 0.0 0.18 0.15 0.15 97 1014.6
20260509013325 9 17 0.0 0.0 0.18 0.15 0.15 97 1014.6
20260509012821 9 171 3.2 3.2 0.00 0.13 0.13 97 1014.4
20260509012317 9 357 0.0 0.0 0.00 0.13 0.13 97 1014.3
20260509011815 9 354 0.0 0.0 0.00 0.13 0.13 97 1014.2
20260509011312 10 24 0.0 0.0 0.00 0.13 0.13 97 1014.1
20260509010810 9 4 0.0 0.0 0.00 0.13 0.13 97 1014.0
20260509010306 9 342 0.0 0.0 0.00 0.13 0.13 97 1014.0
20260509005804 9 28 1.6 1.6 0.00 0.13 0.13 96 1014.0
20260509005306 9 9 0.0 0.0 0.00 0.13 0.13 96 1013.6
20260509004801 9 6 0.0 0.0 0.00 0.13 0.13 96 1013.9
20260509004258 9 6 0.0 0.0 0.00 0.13 0.13 96 1014.1
20260509003757 9 1 0.0 0.0 0.00 0.13 0.13 96 1013.9
20260509003254 10 10 0.0 0.0 0.00 0.13 0.13 96 1013.9
20260509002751 10 10 0.0 0.0 0.00 0.13 0.13 96 1013.8
20260509002249 10 10 0.0 0.0 0.00 0.13 0.13 95 1013.9
20260509001746 10 0 0.0 0.0 0.00 0.13 0.13 95 1013.8
20260509001241 10 353 0.0 0.0 0.00 0.13 0.13 95 1013.7
20260509000740 10 2 0.0 0.0 0.00 0.13 0.13 95 1013.6
20260509000237 10 315 0.0 0.0 0.00 0.13 0.13 94 1013.6
20260508235734 10 339 0.0 0.0 0.00 0.13 0.13 93 1013.6
20260508235230 10 345 0.0 0.0 0.00 0.13 0.13 93 1013.6
20260508234728 10 346 0.0 0.0 0.00 0.13 0.13 92 1013.5
20260508234224 10 347 0.0 0.0 0.00 0.13 0.13 92 1013.4
20260508233723 10 349 0.0 0.0 0.00 0.13 0.13 91 1013.4
20260508233221 10 349 0.0 0.0 0.00 0.13 0.13 90 1013.5
20260508232718 10 357 0.0 0.0 0.00 0.13 0.13 90 1013.6
20260508232214 10 352 0.0 0.0 0.00 0.13 0.13 90 1013.8
20260508231713 10 1 0.0 0.0 0.00 0.13 0.13 89 1013.9
20260508231209 10 3 0.0 0.0 0.00 0.13 0.13 89 1013.9
20260508230706 10 9 0.0 0.0 0.00 0.13 0.13 89 1013.8
20260508230202 10 10 0.0 0.0 0.00 0.13 0.13 89 1014.0
20260508225700 10 8 0.0 0.0 0.00 0.13 0.13 88 1014.0
20260508225156 10 343 0.0 0.0 0.00 0.13 0.13 88 1013.9
20260508224654 10 354 0.0 0.0 0.00 0.13 0.13 88 1014.0
20260508224151 10 44 1.6 1.6 0.00 0.13 0.13 87 1013.9
20260508223649 10 12 0.0 0.0 0.00 0.13 0.13 86 1014.0
20260508223146 10 327 0.0 1.6 0.00 0.13 0.13 86 1014.2
20260508222643 10 38 0.0 0.0 0.00 0.13 0.13 86 1014.0